User: anonymous   Login
Location: Unspecified
(0.0000°N, 0.0000°E)
Time: 05:44:41
(UTC+00:00)
Language:

SCD-1 - Orbit

View from above orbital plane
View from above orbital plane
View from above satellite
View from above satellite

Ground track
Ground track

The orbit data is extracted from the following two-line orbital elements,

1 22490U 93009B   24173.93226578  .00000544  00000-0  99909-4 0  9990
2 22490  24.9712   3.3332 0042588  25.9190 117.8775 14.45305916656046
Epoch (UTC): 21 June 2024 22:22:27
Eccentricity: 0.0042588
inclination: 24.9712°
perigee height: 711 km
apogee height: 771 km
right ascension of ascending node: 3.3332°
argument of perigee: 25.9190°
revolutions per day: 14.45305916
mean anomaly at epoch: 117.8775°
orbit number at epoch: 65604

The dashed part of the orbit path shows where the satellite is in the earth's shadow,  

DLR